EJA337 KFLL-KJAX

Flight info

Callsign EJA337
Flight time N/A
Altitude 28000
Route FRSBE2 STYMY ORL HAINY QUBEN2
Aircraft E55P/M-SBDGRW/LB2

Departure

Time 2026-05-03 23:20
Airport Fort Lauderdale Hollywood International Airport (KFLL)

Arrival

Time N/A
Airport Jacksonville International Airport (KJAX)
Time Latitude Longitude Altitude Speed Heading
2026-05-03 22:00 26.07290 -80.15623 7 ft 0 kts 315°
2026-05-03 22:36 26.07299 -80.15632 7 ft 4 kts 323°
2026-05-03 22:36 26.07344 -80.15653 7 ft 8 kts 352°
2026-05-03 22:37 26.07408 -80.15684 7 ft 11 kts 316°
2026-05-03 22:37 26.07469 -80.15751 7 ft 12 kts 313°
2026-05-03 22:37 26.07493 -80.15833 7 ft 11 kts 271°
2026-05-03 22:37 26.07494 -80.15913 7 ft 8 kts 270°
2026-05-03 22:38 26.07494 -80.15963 7 ft 4 kts 270°
2026-05-03 22:38 26.07494 -80.15970 7 ft 0 kts 270°
2026-05-03 22:39 26.07494 -80.15980 7 ft 3 kts 270°
2026-05-03 22:39 26.07494 -80.16013 7 ft 3 kts 270°
2026-05-03 22:40 26.07494 -80.16024 7 ft 0 kts 270°
2026-05-03 22:41 26.07494 -80.16025 7 ft 0 kts 270°
2026-05-03 22:41 26.07494 -80.16043 7 ft 4 kts 270°
2026-05-03 22:41 26.07495 -80.16088 7 ft 6 kts 270°
2026-05-03 22:41 26.07495 -80.16129 7 ft 4 kts 270°
2026-05-03 22:42 26.07495 -80.16145 7 ft 0 kts 271°
2026-05-03 22:46 26.07495 -80.16156 7 ft 2 kts 271°
2026-05-03 22:46 26.07495 -80.16168 7 ft 0 kts 270°
2026-05-03 22:49 26.07495 -80.16172 7 ft 1 kts 270°
2026-05-03 22:50 26.07495 -80.16194 7 ft 4 kts 270°
2026-05-03 22:50 26.07495 -80.16236 7 ft 5 kts 270°
2026-05-03 22:50 26.07496 -80.16275 7 ft 4 kts 270°
2026-05-03 22:50 26.07496 -80.16305 7 ft 2 kts 270°
2026-05-03 22:51 26.07496 -80.16325 7 ft 2 kts 270°
2026-05-03 22:51 26.07496 -80.16331 7 ft 0 kts 270°
2026-05-03 22:55 26.07496 -80.16335 7 ft 0 kts 270°
2026-05-03 22:55 26.07496 -80.16343 7 ft 1 kts 270°
2026-05-03 22:56 26.07496 -80.16362 7 ft 2 kts 270°
2026-05-03 22:56 26.07496 -80.16379 7 ft 1 kts 271°
2026-05-03 22:56 26.07496 -80.16392 7 ft 1 kts 270°
2026-05-03 22:56 26.07496 -80.16408 7 ft 2 kts 270°
2026-05-03 22:57 26.07496 -80.16415 7 ft 0 kts 270°
2026-05-03 22:59 26.07496 -80.16417 7 ft 0 kts 270°
2026-05-03 22:59 26.07496 -80.16431 7 ft 2 kts 270°
2026-05-03 22:59 26.07497 -80.16454 7 ft 2 kts 270°
2026-05-03 23:00 26.07497 -80.16467 7 ft 0 kts 270°
2026-05-03 23:00 26.07497 -80.16470 7 ft 0 kts 270°
2026-05-03 23:00 26.07497 -80.16478 7 ft 1 kts 270°
2026-05-03 23:00 26.07497 -80.16492 7 ft 1 kts 270°
2026-05-03 23:01 26.07497 -80.16503 7 ft 1 kts 270°
2026-05-03 23:01 26.07497 -80.16509 7 ft 0 kts 270°
2026-05-03 23:01 26.07497 -80.16510 7 ft 0 kts 270°
2026-05-03 23:04 26.07497 -80.16512 7 ft 0 kts 270°
2026-05-03 23:04 26.07497 -80.16522 7 ft 1 kts 270°
2026-05-03 23:05 26.07497 -80.16535 7 ft 1 kts 270°
2026-05-03 23:05 26.07497 -80.16547 7 ft 1 kts 270°
2026-05-03 23:05 26.07497 -80.16554 7 ft 0 kts 270°
2026-05-03 23:05 26.07497 -80.16557 7 ft 0 kts 270°
2026-05-03 23:06 26.07497 -80.16561 7 ft 0 kts 270°
2026-05-03 23:06 26.07497 -80.16572 7 ft 2 kts 269°
2026-05-03 23:06 26.07497 -80.16588 7 ft 2 kts 272°
2026-05-03 23:06 26.07498 -80.16604 7 ft 1 kts 279°
2026-05-03 23:07 26.07501 -80.16613 7 ft 0 kts 289°
2026-05-03 23:07 26.07503 -80.16619 7 ft 0 kts 296°
2026-05-03 23:09 26.07503 -80.16621 7 ft 0 kts 297°
2026-05-03 23:10 26.07513 -80.16634 7 ft 2 kts 321°
2026-05-03 23:10 26.07526 -80.16640 7 ft 2 kts 345°
2026-05-03 23:10 26.07538 -80.16642 7 ft 0 kts 355°
2026-05-03 23:10 26.07546 -80.16643 7 ft 3 kts 358°
2026-05-03 23:11 26.07578 -80.16644 7 ft 3 kts
2026-05-03 23:11 26.07590 -80.16643 7 ft 0 kts
2026-05-03 23:12 26.07591 -80.16643 7 ft 0 kts
2026-05-03 23:13 26.07621 -80.16643 7 ft 6 kts
2026-05-03 23:13 26.07671 -80.16642 7 ft 7 kts
2026-05-03 23:13 26.07694 -80.16614 7 ft 4 kts 90°
2026-05-03 23:13 26.07694 -80.16607 7 ft 0 kts 90°
2026-05-03 23:19 26.07694 -80.16601 7 ft 4 kts 90°
2026-05-03 23:19 26.07694 -80.16596 7 ft 0 kts 90°
2026-05-03 23:19 26.07693 -80.16383 7 ft 70 kts 90°
2026-05-03 23:20 26.07692 -80.15556 85 ft 133 kts 86°
2026-05-03 23:20 26.07691 -80.14471 687 ft 153 kts 87°
2026-05-03 23:20 26.07709 -80.13213 1249 ft 179 kts 86°
2026-05-03 23:20 26.07747 -80.11746 1945 ft 200 kts 85°
2026-05-03 23:21 26.07931 -80.10200 2727 ft 213 kts 67°
2026-05-03 23:21 26.08546 -80.08626 3368 ft 230 kts 69°
2026-05-03 23:21 26.09331 -80.07136 3879 ft 230 kts 38°
2026-05-03 23:21 26.10798 -80.06398 4029 ft 232 kts 12°
2026-05-03 23:22 26.13976 -80.05183 3992 ft 250 kts 19°
2026-05-03 23:22 26.15659 -80.04794 4003 ft 251 kts 352°
2026-05-03 23:22 26.17351 -80.05346 4017 ft 253 kts 339°
2026-05-03 23:23 26.19015 -80.05991 4008 ft 258 kts 339°
2026-05-03 23:23 26.20732 -80.06647 4029 ft 260 kts 339°
2026-05-03 23:23 26.22237 -80.07700 4003 ft 261 kts 310°
2026-05-03 23:23 26.23121 -80.09470 4225 ft 261 kts 292°
2026-05-03 23:24 26.23811 -80.11298 4787 ft 257 kts 292°
2026-05-03 23:24 26.24480 -80.13128 5567 ft 255 kts 290°
2026-05-03 23:24 26.25136 -80.14990 6379 ft 266 kts 289°
2026-05-03 23:24 26.25968 -80.16828 7309 ft 272 kts 301°
2026-05-03 23:25 26.26975 -80.18553 8352 ft 271 kts 298°
2026-05-03 23:25 26.27989 -80.20328 9293 ft 274 kts 298°
2026-05-03 23:25 26.28996 -80.22105 10178 ft 278 kts 298°
2026-05-03 23:25 26.30043 -80.23948 11052 ft 282 kts 298°
2026-05-03 23:26 26.31076 -80.25770 11919 ft 285 kts 298°
2026-05-03 23:26 26.32148 -80.27653 12796 ft 287 kts 298°
2026-05-03 23:26 26.33210 -80.29533 13553 ft 292 kts 298°
2026-05-03 23:26 26.34286 -80.31427 14348 ft 294 kts 297°
2026-05-03 23:27 26.35379 -80.33357 15158 ft 296 kts 297°
2026-05-03 23:27 26.36476 -80.35287 15949 ft 297 kts 297°
2026-05-03 23:27 26.37571 -80.37225 16687 ft 299 kts 297°
2026-05-03 23:27 26.38677 -80.39173 17442 ft 300 kts 297°
2026-05-03 23:28 26.39800 -80.41161 18120 ft 304 kts 297°
2026-05-03 23:28 26.40919 -80.43139 18800 ft 306 kts 297°
2026-05-03 23:28 26.42066 -80.45168 19487 ft 309 kts 297°
2026-05-03 23:28 26.43198 -80.47169 20148 ft 312 kts 296°
2026-05-03 23:29 26.44355 -80.49217 20825 ft 313 kts 296°
2026-05-03 23:29 26.45519 -80.51273 21454 ft 316 kts 296°
2026-05-03 23:29 26.46688 -80.53346 22063 ft 318 kts 296°
2026-05-03 23:29 26.47893 -80.55410 22606 ft 325 kts 302°
2026-05-03 23:30 26.49747 -80.57002 23155 ft 350 kts 328°
2026-05-03 23:30 26.52156 -80.57729 23676 ft 364 kts 339°
2026-05-03 23:30 26.54593 -80.58449 24181 ft 366 kts 336°
2026-05-03 23:30 26.57069 -80.59209 24762 ft 366 kts 336°
2026-05-03 23:31 26.59504 -80.59973 25387 ft 365 kts 335°
2026-05-03 23:31 26.61933 -80.60744 26018 ft 364 kts 335°
2026-05-03 23:31 26.64380 -80.61518 26605 ft 364 kts 335°
2026-05-03 23:31 26.66806 -80.62286 27216 ft 363 kts 335°
2026-05-03 23:32 26.69210 -80.63051 27807 ft 362 kts 335°
2026-05-03 23:32 26.71681 -80.63844 27974 ft 374 kts 335°
2026-05-03 23:32 26.74224 -80.64658 28001 ft 389 kts 335°
2026-05-03 23:32 26.76870 -80.65504 28020 ft 402 kts 335°
2026-05-03 23:33 26.79637 -80.66386 28024 ft 416 kts 335°
2026-05-03 23:33 26.82438 -80.67275 28020 ft 427 kts 335°
2026-05-03 23:33 26.88233 -80.69119 28017 ft 434 kts 335°
2026-05-03 23:34 26.93998 -80.71122 28017 ft 432 kts 332°
2026-05-03 23:34 26.99717 -80.73283 28017 ft 434 kts 333°
2026-05-03 23:35 27.05454 -80.75456 28020 ft 435 kts 333°
2026-05-03 23:35 27.11155 -80.77615 28018 ft 435 kts 332°
2026-05-03 23:36 27.16902 -80.79795 28026 ft 435 kts 333°
2026-05-03 23:36 27.22660 -80.81976 28036 ft 434 kts 332°
2026-05-03 23:37 27.28390 -80.84152 28039 ft 435 kts 332°
2026-05-03 23:37 27.34085 -80.86372 28042 ft 433 kts 330°
2026-05-03 23:38 27.39742 -80.88695 28039 ft 434 kts 330°
2026-05-03 23:38 27.45427 -80.91039 28038 ft 434 kts 330°
2026-05-03 23:39 27.51090 -80.93373 28042 ft 433 kts 330°
2026-05-03 23:39 27.56750 -80.95708 28042 ft 433 kts 330°
2026-05-03 23:40 27.62407 -80.98041 28051 ft 434 kts 330°
2026-05-03 23:40 27.68076 -81.00378 28048 ft 435 kts 330°
2026-05-03 23:41 27.73752 -81.02728 28045 ft 435 kts 330°
2026-05-03 23:41 27.79454 -81.05091 28049 ft 435 kts 330°
2026-05-03 23:42 27.85155 -81.07453 28046 ft 435 kts 330°
2026-05-03 23:42 27.90797 -81.09794 28050 ft 435 kts 330°
2026-05-03 23:43 27.96484 -81.12159 28060 ft 435 kts 331°
2026-05-03 23:43 28.02176 -81.14523 28062 ft 434 kts 330°
2026-05-03 23:44 28.07931 -81.16691 28079 ft 437 kts 333°
2026-05-03 23:44 28.13742 -81.18787 28088 ft 438 kts 333°
2026-05-03 23:45 28.19555 -81.20886 28086 ft 439 kts 333°
2026-05-03 23:45 28.25379 -81.22996 28086 ft 439 kts 333°
2026-05-03 23:46 28.31189 -81.25102 28085 ft 440 kts 333°
2026-05-03 23:46 28.37031 -81.27222 28074 ft 440 kts 333°
2026-05-03 23:47 28.42877 -81.29349 28077 ft 440 kts 333°
2026-05-03 23:47 28.48719 -81.31471 28080 ft 440 kts 333°
2026-05-03 23:48 28.54559 -81.33500 28069 ft 449 kts 341°
2026-05-03 23:48 28.60923 -81.33948 28087 ft 458 kts 348°
2026-05-03 23:49 28.67296 -81.34355 28089 ft 458 kts 348°
2026-05-03 23:49 28.73678 -81.34780 28085 ft 458 kts 348°
2026-05-03 23:50 28.80013 -81.35197 28087 ft 458 kts 348°
2026-05-03 23:50 28.86387 -81.35616 28085 ft 458 kts 348°
2026-05-03 23:51 28.92764 -81.36037 28099 ft 458 kts 348°
2026-05-03 23:51 28.99127 -81.36459 28081 ft 458 kts 348°
2026-05-03 23:52 29.02340 -81.36681 27861 ft 463 kts 348°
2026-05-03 23:52 29.05573 -81.36903 27286 ft 471 kts 349°
2026-05-03 23:52 29.08834 -81.37125 26635 ft 466 kts 349°
2026-05-03 23:52 29.12031 -81.37337 26015 ft 460 kts 349°
2026-05-03 23:53 29.15189 -81.37549 25407 ft 453 kts 349°
2026-05-03 23:53 29.18353 -81.37772 24790 ft 448 kts 349°
2026-05-03 23:53 29.21433 -81.37976 24192 ft 444 kts 349°
2026-05-03 23:53 29.24509 -81.38190 23606 ft 440 kts 349°
2026-05-03 23:54 29.27515 -81.38399 23073 ft 435 kts 349°
2026-05-03 23:54 29.30555 -81.38599 22529 ft 430 kts 349°
2026-05-03 23:54 29.33520 -81.38799 21996 ft 426 kts 349°
2026-05-03 23:54 29.36456 -81.38995 21456 ft 422 kts 349°
2026-05-03 23:55 29.39391 -81.39192 20917 ft 417 kts 349°
2026-05-03 23:55 29.42262 -81.39391 20384 ft 416 kts 349°
2026-05-03 23:55 29.45163 -81.39584 19855 ft 417 kts 350°
2026-05-03 23:55 29.48067 -81.39782 19330 ft 417 kts 350°
2026-05-03 23:56 29.50943 -81.39969 18828 ft 416 kts 350°
2026-05-03 23:56 29.53845 -81.40207 18320 ft 411 kts 345°
2026-05-03 23:56 29.56444 -81.41235 17815 ft 388 kts 322°
2026-05-03 23:56 29.58403 -81.43222 17362 ft 371 kts 306°
2026-05-03 23:57 29.60213 -81.45333 16920 ft 370 kts 308°
2026-05-03 23:57 29.61986 -81.47431 16493 ft 366 kts 308°
2026-05-03 23:57 29.63736 -81.49480 16068 ft 361 kts 307°
2026-05-03 23:57 29.65509 -81.51560 15632 ft 358 kts 308°
2026-05-03 23:58 29.67229 -81.53570 15198 ft 355 kts 308°
2026-05-03 23:58 29.68958 -81.55597 14758 ft 352 kts 309°
2026-05-03 23:58 29.70673 -81.57569 14320 ft 349 kts 309°
2026-05-03 23:58 29.72367 -81.59530 13882 ft 346 kts 309°
2026-05-03 23:59 29.74059 -81.61480 13465 ft 344 kts 309°
2026-05-03 23:59 29.75734 -81.63420 13063 ft 343 kts 310°
2026-05-03 23:59 29.77800 -81.64869 12972 ft 359 kts 336°
2026-05-03 23:59 29.80304 -81.65209 12993 ft 370 kts 352°
2026-05-04 00:00 29.82885 -81.65424 12988 ft 370 kts 349°
2026-05-04 00:00 29.85468 -81.65636 12985 ft 370 kts 349°
2026-05-04 00:00 29.88033 -81.65854 12983 ft 371 kts 349°
2026-05-04 00:00 29.90573 -81.66084 12862 ft 360 kts 349°
2026-05-04 00:01 29.93028 -81.66304 12617 ft 344 kts 348°
2026-05-04 00:01 29.95379 -81.66558 12362 ft 330 kts 346°
2026-05-04 00:01 29.97601 -81.66913 12012 ft 321 kts 343°
2026-05-04 00:01 29.99789 -81.67371 11611 ft 313 kts 344°
2026-05-04 00:02 30.01903 -81.67812 11222 ft 307 kts 342°
2026-05-04 00:02 30.03980 -81.68245 10832 ft 301 kts 343°
2026-05-04 00:02 30.06012 -81.68682 10447 ft 295 kts 343°
2026-05-04 00:02 30.08029 -81.69128 10049 ft 288 kts 343°
2026-05-04 00:03 30.09967 -81.69576 9655 ft 283 kts 343°
2026-05-04 00:03 30.11871 -81.70023 9278 ft 278 kts 343°
2026-05-04 00:03 30.13758 -81.70458 8889 ft 273 kts 343°
2026-05-04 00:03 30.15569 -81.71026 8499 ft 268 kts 338°
2026-05-04 00:04 30.17348 -81.71670 8112 ft 266 kts 338°
2026-05-04 00:04 30.19091 -81.72321 7726 ft 263 kts 338°
2026-05-04 00:04 30.20829 -81.72975 7354 ft 261 kts 338°
2026-05-04 00:04 30.22532 -81.73631 7039 ft 257 kts 338°
2026-05-04 00:05 30.24210 -81.74287 6713 ft 253 kts 338°
2026-05-04 00:05 30.25854 -81.74938 6359 ft 243 kts 338°
2026-05-04 00:05 30.27428 -81.75563 6020 ft 235 kts 339°
2026-05-04 00:05 30.28924 -81.76183 5706 ft 227 kts 338°
2026-05-04 00:06 30.30383 -81.76805 5381 ft 220 kts 338°
2026-05-04 00:06 30.31807 -81.77439 5053 ft 216 kts 338°
2026-05-04 00:06 30.33179 -81.78072 4738 ft 211 kts 338°
2026-05-04 00:06 30.34526 -81.78713 4401 ft 207 kts 338°
2026-05-04 00:07 30.35806 -81.79342 4025 ft 190 kts 338°
2026-05-04 00:07 30.36976 -81.79948 3644 ft 179 kts 338°
2026-05-04 00:07 30.38100 -81.80553 3380 ft 177 kts 338°
2026-05-04 00:07 30.39220 -81.81136 3112 ft 177 kts 339°
2026-05-04 00:08 30.40338 -81.81731 2823 ft 178 kts 340°
2026-05-04 00:08 30.41466 -81.82320 2577 ft 176 kts 339°
2026-05-04 00:08 30.42567 -81.82886 2398 ft 170 kts 343°
2026-05-04 00:08 30.43678 -81.83263 2286 ft 163 kts 360°
2026-05-04 00:09 30.44775 -81.83082 2173 ft 155 kts 29°
2026-05-04 00:09 30.45515 -81.82232 2053 ft 152 kts 59°
2026-05-04 00:09 30.46011 -81.81141 1941 ft 154 kts 63°
2026-05-04 00:09 30.46467 -81.80024 1826 ft 153 kts 66°
2026-05-04 00:10 30.46830 -81.78937 1637 ft 137 kts 70°
2026-05-04 00:10 30.47150 -81.77961 1493 ft 124 kts 69°
2026-05-04 00:10 30.47440 -81.77062 1329 ft 118 kts 69°
2026-05-04 00:10 30.47709 -81.76176 1140 ft 114 kts 67°
2026-05-04 00:11 30.47990 -81.75336 993 ft 109 kts 70°
2026-05-04 00:11 30.48245 -81.74515 852 ft 107 kts 71°
2026-05-04 00:11 30.48493 -81.73704 724 ft 105 kts 72°
2026-05-04 00:11 30.48733 -81.72922 584 ft 101 kts 70°
2026-05-04 00:12 30.48974 -81.72143 425 ft 103 kts 71°
2026-05-04 00:12 30.49207 -81.71358 307 ft 103 kts 71°
2026-05-04 00:12 30.49445 -81.70581 171 ft 101 kts 71°
2026-05-04 00:12 30.49676 -81.69820 28 ft 96 kts 71°